Regional Weather Roundup
Issued by NWS

Home | Current Version | Previous Version | Graphics & Text | Print | Product List | Glossary On
Versions: 1 2 3 4 5 6 7 8 9 10 11 12 13 14 15 16 17 18 19 20 21 22 23 24 25 26 27 28 29 30 31 32 33 34 35 36 37 38 39 40 41 42 43 44 45 46 47 48 49 50
000
ASUS43 KMPX 220010
RWRMN
WEATHER ROUNDUP FOR MINNESOTA
NATIONAL WEATHER SERVICE TWIN CITIES/CHANHASSEN MN
700 PM CDT THU AUG 21 2014


NOTE: "FAIR" INDICATES FEW OR NO CLOUDS BELOW 12,000 FEET WITH NO
SIGNIFICANT WEATHER AND/OR OBSTRUCTIONS TO VISIBILITY. N/A MEANS
CURRENT SKY AND/OR WEATHER CONDITIONS ARE NOT AVAILABLE.

MNZ060>063-068>070-220100-
   Twin Cities Metro

CITY           SKY/WX    TMP DP  RH WIND       PRES   REMARKS
TWIN CITIES    MOSUNNY   84  73  69 CALM      29.80R HX  90
6HR MIN TEMP:  80; 6HR MAX TEMP:  85;

ST PAUL        MOSUNNY   83  74  74 CALM      29.79S
CRYSTAL        MOSUNNY   81  72  74 NE5       29.79S
BLAINE         MOSUNNY   79  75  89 NE5       29.81S
LAKEVILLE      MOSUNNY   82  73  74 CALM      29.81R
EDEN PRAIRIE   CLOUDY    83  75  77 NE5       29.78S HX  90
6HR MIN TEMP:  83; 6HR MAX TEMP:  87;

SOUTH ST PAUL  MOSUNNY   84  73  69 CALM      29.80R HX  90
LAKE ELMO      FAIR      79  73  83 NE3       29.82S
$$
MNZ001>005-007-008-013>017-022>024-027-028-220100-
   Northwest Minnesota

CITY           SKY/WX    TMP DP  RH WIND       PRES   REMARKS
BEMIDJI        CLOUDY    71  67  87 E10       29.87S
HALLOCK        MOSUNNY   72  66  83 NE8       29.84S
ROSEAU         MOSUNNY   72  64  78 E8        29.87R
WARROAD        CLOUDY    70  64  83 E8        29.88S
THIEF RVR FALL CLOUDY    73  66  78 SE7       29.84S
CROOKSTON      PTSUNNY   75  70  83 S3        29.83R
FOSSTON        CLOUDY    72  64  78 SE7       29.85F
DETROIT LAKES  CLOUDY    72  68  88 SE8       29.87S
MOORHEAD       PTSUNNY   77  73  88 CALM      29.83S
PARK RAPIDS    CLOUDY    71  68  90 SE5       29.86S
MAHNOMEN       CLOUDY    72  68  87 SE5       29.85S
$$
MNZ006-009>011-018-025>026-220100-
   North Central Minnesota

CITY           SKY/WX    TMP DP  RH WIND       PRES   REMARKS
BAUDETTE       CLOUDY    68  63  84 E12       29.87S
FLAG ISLAND    PTSUNNY   66  63  88 E3        29.88S
INTL FALLS     CLOUDY    68  63  84 E7        29.90S
6HR MIN TEMP:  67; 6HR MAX TEMP:  69; 6HR PCP:  0.01;

WASKISH        CLOUDY    72  66  83 CALM      29.87S
BIG FORK       CLOUDY    72  64  78 CALM      29.89S
LONGVILLE      CLOUDY    70  66  88 CALM      29.88S
GRAND RAPIDS   CLOUDY    66  63  88 SE3       29.89F
CRANE LAKE     CLOUDY    63  61  94 CALM      29.93S
ORR            CLOUDY    66  57  72 SE3       29.89R
COOK           CLOUDY    66  61  82 CALM      29.91S
WALKER         CLOUDY    69  65  88 SE5       29.87S
$$
MNZ012-019>021-037-220100-
   Northeast Minnesota

CITY           SKY/WX    TMP DP  RH WIND       PRES   REMARKS
DULUTH         CLOUDY    64  60  87 E12       29.90S
6HR MIN TEMP:  64; 6HR MAX TEMP:  67;

ELY            CLOUDY    64  57  77 E3        29.93F
HIBBING        CLOUDY    70  61  73 SE9       29.90S
EVELETH        CLOUDY    68  61  77 SE6       29.92S
DULUTH HARBOR  CLOUDY    63  61  94 NE20      29.90S
TWO HARBORS    CLOUDY    63  57  82 NE9       29.90S
SILVER BAY     MOSUNNY   61  61 100 NE7       29.91S
GRAND MARAIS     N/A     62  60  93 NE9       29.93S
G MARAIS ARPRT CLOUDY    61  55  82 E7        29.98S
$$
MNZ029>031-032-039>041-046>048-054>057-064-220100-
   West Central Minnesota

CITY           SKY/WX    TMP DP  RH WIND       PRES   REMARKS
FERGUS FALLS   CLOUDY    75  66  73 CALM      29.83R
WHEATON        SUNNY     79  70  73 CALM      29.84R
MORRIS         SUNNY     81  70  69 CALM      29.82S
ALEXANDRIA     CLOUDY    73  69  87 E5        29.86S
ELBOW LAKE     FAIR      76  71  85 E6        29.83S
WADENA         CLOUDY    70  68  94 E5        29.85S
GLENWOOD       SUNNY     75  70  83 E5        29.85S
APPLETON       MOSUNNY   82  70  65 N7        29.82R
BENSON         MOSUNNY   79  72  78 E3        29.83R
ORTONVILLE     SUNNY     81  70  69 NE3       29.83R
MADISON        SUNNY     82  70  65 NW6       29.83S
WILLMAR        FAIR      81  72  74 NE6       29.83S
$$
MNZ033>034-036-042>043-049>051-058-059-220100-
   Central Minnesota

CITY           SKY/WX    TMP DP  RH WIND       PRES   REMARKS
ST CLOUD       PTSUNNY   78  71  79 E5        29.82S
6HR MIN TEMP:  74; 6HR MAX TEMP:  79;

SAUK CENTRE    CLOUDY    73  70  88 E3        29.84S
PAYNESVILLE    PTSUNNY   75  70  84 CALM      29.84R
AITKIN         CLOUDY    70  64  83 CALM      29.86S
PINE RIVER     CLOUDY    68  68 100 CALM      29.90F
BRAINERD       CLOUDY    68  66  93 NE7       29.86S
STAPLES        HVY RAIN  70  66  88 CALM      29.85F
LONG PRAIRIE   CLOUDY    70  68  94 NE8       29.84F
LITTLE FALLS   CLOUDY    72  68  88 CALM      29.84S
LITCHFIELD     MOSUNNY   79  75  89 NE3       29.83S
BUFFALO        SUNNY     77  71  79 N3        29.82S
MAPLE LAKE     SUNNY     78  73  85 NE3       29.83S
$$
MNZ037-044-045-052-053-220100-
   East Central Minnesota

CITY           SKY/WX    TMP DP  RH WIND       PRES   REMARKS
PRINCETON      PTSUNNY   75  72  88 NE6       29.83S
MORA           PTSUNNY   70  68  94 CALM      29.85F
CAMBRIDGE      MOSUNNY   77  66  69 CALM      29.81S
RUSH CITY      PTSUNNY   74  69  86 E3        29.83F
MOOSE LAKE     CLOUDY    63  61  94 NE5       29.86S
HINCKLEY       CLOUDY    72  72 100 NE5       29.84F
CLOQUET        CLOUDY    63  61  94 E8        29.89F FOG
MCGREGOR       CLOUDY    66  63  88 E3        29.88S
$$
MNZ071>073-080-081-089-090-097-098-220100-
   Southwest Minnesota

CITY           SKY/WX    TMP DP  RH WIND       PRES   REMARKS
MONTEVIDEO     SUNNY     81  72  74 NE3       29.83R
GRANITE FALLS  MOSUNNY   82  73  75 NE3       29.83S
CANBY          SUNNY     82  68  60 NW7       29.85S
MARSHALL       SUNNY     84  70  61 N9        29.82R
REDWOOD FALLS  MOSUNNY   84  73  69 N7        29.81S HX  90
OLIVIA         SUNNY     81  70  69 N5        29.82R
PIPESTONE      SUNNY     82  68  61 N12G17    29.86S
WINDOM         PTSUNNY   77  64  65 E7        29.83S
WORTHINGTON    MOSUNNY   84  23  10 NW10      29.85S
JACKSON        PTSUNNY   82  72  69 S6        29.84S
TRACY          PTSUNNY   82  76  81 NE3       29.84R HX  90
SLAYTON        SUNNY     83  72  69 CALM      29.86R
$$
MNZ065>067-074>077-082>085-091>093-220100-
   South Central Minnesota

CITY           SKY/WX    TMP DP  RH WIND       PRES   REMARKS
MANKATO        PTSUNNY   82  72  69 S6        29.80S
NEW ULM        MOSUNNY   84  77  79 N6        29.81R HX  94
ST JAMES       LGT RAIN  88  77  70 W6        29.82R HX 100
FAIRMONT       MOSUNNY   84  72  65 MISG      29.83R
GLENCOE        MOSUNNY   82  73  73 N6        29.80S
FARIBAULT      CLOUDY    86  70  58 S3        29.82S HX  90
OWATONNA       MOSUNNY   82  72  69 S6        29.83S
WASECA         PTSUNNY   79  68  69 S6        29.84S
ALBERT LEA     SUNNY     84  72  65 SW5       29.83F
$$
MNZ078>079-086>088-094>096-220100-
   Southeast Minnesota

CITY           SKY/WX    TMP DP  RH WIND       PRES   REMARKS
ROCHESTER      MOSUNNY   80  72  76 S9        29.86S
6HR MIN TEMP:  77; 6HR MAX TEMP:  84;

RED WING       CLOUDY    82  73  74 SE7       29.79F
STANTON        CLOUDY    85  73  69 SW5       29.80R HX  91
DODGE CENTER   MOSUNNY   81  72  74 SW7       29.85S
WINONA         CLOUDY    81  72  74 CALM      29.85R
AUSTIN         MOSUNNY   82  72  69 SW7       29.84F
PRESTON        CLOUDY    79  75  87 S7        29.87F
$$
ABBREVIATIONS USED IN REMARKS
   TC - TEMPERATURES IN CELSIUS
  WCI - WIND CHILL INDEX
   HX - HEAT INDEX
  VSB - VISIBILITY
$$



USA.gov is the U.S. government's official web portal to all federal, state and local government web resources and services.